Simultaneous Nadir Overpasses (SNOs) Predictions

Prediction of SNOs between GOES-16 and LANDSAT-8 Satellite Orbit:

Table of predicted SNOs for the next 14.0 days since TLE Epoch: 2/22/2020
Index Date Time (GOES-16) GOES-16 Lat,Lon LANDSAT-8 Lat,Lon Distance(km) Time Diff (sec)
1 02/22/2020 03:23:17 0.03, -75.15 0.00, -77.73 286.85 0
2 02/24/2020 03:12:17 0.03, -75.15 0.13, -74.67 54.54 80
3 02/26/2020 03:00:05 0.03, -75.15 0.75, -71.71 391.11 80
4 02/26/2020 15:18:41 -0.03, -75.17 0.31, -76.87 193.67 80
5 02/28/2020 15:09:09 -0.03, -75.18 -0.31, -73.92 143.54 80
6 02/29/2020 03:27:53 0.04, -75.17 -0.80, -79.11 448.20 80
7 03/01/2020 14:56:57 -0.03, -75.19 -0.93, -70.96 480.97 80
8 03/02/2020 03:15:41 0.04, -75.18 -0.17, -76.15 110.72 80
9 03/04/2020 03:06:09 0.05, -75.19 0.45, -73.19 226.89 80
10 03/04/2020 15:24:45 -0.05, -75.21 0.61, -78.36 357.74 80
11 03/06/2020 15:12:33 -0.05, -75.23 -0.01, -75.40 19.80 80




NCC Satellite Simultaneous Nadir Overpasses (SNOs) Prediction Service
